Regional Weather Roundup
Issued by NWS

Home | Current Version | Previous Version | Graphics & Text | Print | Product List | Glossary Off
Versions: 1 2 3 4 5 6 7 8 9 10 11 12 13 14 15 16 17 18 19 20 21 22 23 24 25 26 27 28 29 30 31 32 33 34 35 36 37 38 39 40 41 42 43 44 45 46 47 48 49 50

872
ASUS43 KTOP 250208
RWRKS

WEATHER ROUNDUP FOR KANSAS
NATIONAL WEATHER SERVICE GOODLAND KS
900 PM CDT SUN JUL 24 2016

NOTE:  "FAIR" INDICATES FEW OR NO CLOUDS BELOW 12,000 FEET WITH NO
SIGNIFICANT WEATHER AND/OR OBSTRUCTIONS TO VISIBILITY.

KSZ001>006-013>018-027>032-041>047-250300-
NORTHWEST KANSAS

CITY           SKY/WX    TMP DP  RH WIND       PRES   REMARKS
GOODLAND       CLOUDY    80  59  48 E13       30.10R
HAYS           CLEAR     81  61  50 NE16      30.01R
HILL CITY      CLEAR     80  64  58 E8        30.05R
RUSSELL        CLEAR     79  64  60 NE10      29.99R
$$

KSZ061>065-074>080-084>089-250300-
SOUTHWEST KANSAS

CITY           SKY/WX    TMP DP  RH WIND       PRES   REMARKS
DODGE CITY     CLEAR     85  63  47 E5        29.97R
ELKHART          N/A     85  63  47 N5          N/A
GARDEN CITY    MOCLDY    86  66  51 E5        30.00R
GREAT BEND     CLEAR     84  68  58 NE16G22   29.97R
LIBERAL        CLOUDY    88  64  45 NE8       29.98S
PRATT          CLEAR     86  67  52 E7        29.94R
$$

KSZ066>073-081>083-090>101-250300-
SOUTHEAST KANSAS

CITY           SKY/WX    TMP DP  RH WIND       PRES   REMARKS
CHANUTE        CLOUDY    87  76  69 SE5       29.93R HX  97
COFFEYVILLE    CLEAR     89  71  55 SE5       29.92R HX  95
HUTCHINSON     CLOUDY    88  72  58 NE9       29.94R
MEDICINE LODGE   N/A     93  66  40 E7        29.89R HX  96
NEWTON         PTCLDY    87  74  64 NE8       29.95R HX  95
PARSONS        PTCLDY    86  76  71 MISG      29.94R HX  96
WICHITA INTL   PTCLDY    91  69  48 E6        29.91R HX  96
WICHITA JABRA  CLEAR     86  75  69 E7        29.92R HX  95
WICHITA MCCONL CLEAR     91  73  55 E6        29.92R HX  99
WINFIELD       CLEAR     90  70  51 SE8       29.92R HX  95
$$

KSZ007>012-019>026-033>040-048>060-102>105-250300-
NORTHEAST KANSAS

CITY           SKY/WX    TMP DP  RH WIND       PRES   REMARKS
CONCORDIA      CLEAR     75  64  68 NE6       30.01R
EMPORIA        CLEAR     86  74  67 NE9       29.95R
LAWRENCE       CLEAR     81  73  76 NE8       29.96R
MANHATTAN      CLEAR     80  66  62 NE10      29.97R
MARYSVILLE     CLEAR     73  63  68 N3        30.01R
OLATHE IND     CLOUDY    84  78  82 N14       29.97R HX  95
OLATHE EXE     CLOUDY    85  77  77 N9        29.97R HX  95
SALINA         CLEAR     85  71  63 NE12      29.97R
TOPEKA BILLARD CLEAR     80  68  66 NE7       29.96S
TOPEKA FORBES  CLEAR     82  69  64 NE10      29.96S
$$




USA.gov is the U.S. government's official web portal to all federal, state and local government web resources and services.